Date,TemperatureHighF,TemperatureAvgF,TemperatureLowF,DewpointHighF,DewpointAvgF,DewpointLowF,HumidityHigh,HumidityAvg,HumidityLow,PressureMaxIn,PressureMinIn,WindSpeedMaxMPH,WindSpeedAvgMPH,GustSpeedMaxMPH,PrecipitationSumIn
2013-1-1,22.8,20.7,17.1,2.5,-1.8,-4.7,42,36,34,30.11,30.02,13,5,17,0.00
2013-1-2,25.0,20.7,13.8,9.8,2.6,-5.2,52,45,39,30.11,30.02,11,2,12,0.00
2013-1-3,27.9,24.5,19.9,10.0,6.2,1.7,51,45,42,30.08,29.99,19,5,21,0.00
2013-1-4,30.4,27.7,24.8,9.5,8.0,5.5,47,43,40,30.11,29.90,22,10,27,0.00
2013-1-5,34.0,26.5,13.1,22.0,10.5,-3.3,64,51,42,30.20,29.90,8,1,9,0.00
2013-1-6,34.2,32.8,29.5,24.3,17.5,9.2,67,54,41,30.23,29.81,13,1,14,0.00
2013-1-7,35.6,31.3,27.9,11.7,8.6,5.5,46,38,30,30.26,30.02,13,3,15,0.00
2013-1-8,37.6,31.8,27.1,15.8,11.7,8.9,47,43,39,30.17,30.02,8,1,11,0.00
2013-1-9,43.2,36.9,31.6,20.0,13.1,7.6,50,38,28,30.37,29.87,25,8,28,0.00
2013-1-10,42.4,32.5,22.6,18.4,10.2,4.5,52,39,30,30.49,30.11,6,2,9,0.00
2013-1-11,49.3,41.2,34.0,47.3,36.6,18.6,95,84,53,30.11,29.67,15,2,15,0.00
2013-1-12,53.8,46.0,38.5,47.9,33.8,18.4,94,67,33,29.90,29.69,16,4,22,0.00
2013-1-13,38.5,33.4,24.8,30.5,23.8,8.8,85,69,44,29.99,29.78,9,2,12,0.00
2013-1-14,24.8,20.0,13.8,9.7,2.4,-1.4,52,46,42,30.34,29.99,0,0,0,0.00
2013-1-15,27.9,19.1,10.8,7.9,3.1,-2.6,59,49,42,30.37,30.08,0,0,0,0.00
2013-1-16,33.8,24.8,12.7,18.5,8.8,-2.0,58,50,35,30.08,29.67,20,4,24,0.00
2013-1-17,31.3,22.3,15.4,16.4,2.7,-6.0,54,42,35,30.29,29.90,15,5,20,0.00
2013-1-18,34.2,20.6,5.2,12.4,1.3,-12.0,52,43,35,30.34,29.81,7,2,15,1.02
2013-1-19,41.5,38.3,33.1,22.9,18.3,11.4,62,44,39,29.81,29.46,23,5,32,0.00
2013-1-20,34.3,17.8,11.5,22.3,-3.3,-10.9,61,39,34,30.14,29.46,32,12,37,0.00
2013-1-21,12.9,8.3,1.2,-9.6,-13.7,-20.0,35,35,35,30.08,29.90,23,9,26,0.00
2013-1-22,7.7,1.8,-2.6,-14.2,-19.5,-23.4,35,35,35,30.23,30.05,19,8,22,0.00
2013-1-23,16.0,9.0,0.5,-5.2,-12.5,-20.7,38,36,35,30.23,29.99,13,3,17,0.00
2013-1-24,13.6,8.9,3.2,-7.3,-11.5,-16.7,38,38,38,30.55,30.11,8,1,10,0.00
2013-1-25,19.8,15.7,11.3,5.1,-1.8,-9.4,56,45,38,30.43,29.96,6,1,6,0.00
2013-1-26,26.2,20.4,12.2,5.8,2.9,-5.2,57,46,35,30.37,29.99,10,3,13,0.04
2013-1-27,27.9,20.8,9.5,17.6,3.7,-7.6,68,47,37,30.40,30.05,8,2,10,0.00
2013-1-28,37.2,33.2,26.8,34.7,27.1,17.6,91,78,68,30.05,29.78,11,2,13,0.16
2013-1-29,53.1,41.6,33.8,51.7,37.5,26.1,95,85,73,29.96,29.34,6,1,8,0.80
2013-1-30,53.1,39.1,28.2,51.4,36.6,12.3,95,91,51,29.34,29.05,21,4,25,0.48
2013-1-31,27.9,19.8,16.2,13.4,1.2,-3.4,54,44,34,29.84,29.22,31,14,31,0.00
2013-2-1,16.3,14.5,11.7,-0.4,-3.8,-6.3,49,43,36,30.14,29.84,17,9,24,0.00
2013-2-2,15.4,11.4,2.1,-2.1,-7.6,-18.2,48,41,36,30.11,29.96,10,1,11,0.00
2013-2-3,18.1,10.0,0.5,1.5,-9.1,-19.6,52,41,36,29.99,29.81,16,4,22,0.00
2013-2-4,19.0,13.5,5.4,1.6,-3.5,-12.7,55,46,38,29.96,29.84,7,1,8,0.00
2013-2-5,27.0,13.8,-0.2,13.0,-3.6,-17.8,56,45,42,29.93,29.69,13,2,17,0.00
2013-2-6,28.6,20.5,6.4,7.8,2.1,-9.9,56,44,40,30.23,29.93,8,1,11,0.00
2013-2-7,29.5,26.9,24.4,19.5,13.5,6.8,71,57,43,30.20,29.90,9,3,11,0.00
2013-2-8,28.0,24.6,12.2,21.5,10.4,-4.6,76,56,36,30.34,29.87,10,2,11,1.65
2013-2-9,25.0,10.7,-6.3,5.0,-6.4,-21.7,56,45,41,30.40,30.20,5,1,7,0.00
2013-2-10,36.1,19.2,2.5,33.2,5.6,-14.0,89,56,45,30.20,29.55,9,2,11,0.00
2013-2-11,40.1,35.3,31.1,38.5,25.7,15.1,95,69,51,29.75,29.43,26,9,28,0.00
2013-2-12,31.1,28.2,25.2,15.1,9.7,6.1,51,45,42,29.96,29.75,17,8,22,0.00
2013-2-13,33.4,29.1,23.0,16.9,13.4,7.4,56,51,46,29.87,29.67,11,1,12,0.00
2013-2-14,36.9,32.8,27.9,28.4,19.6,7.5,78,59,41,29.81,29.55,23,3,23,0.00
2013-2-15,27.7,23.0,19.0,7.8,2.7,-0.1,48,41,33,30.08,29.81,15,7,18,0.00
2013-2-16,21.7,16.8,11.8,3.8,-1.0,-5.4,54,45,35,30.05,29.96,9,1,11,0.00
2013-2-17,21.2,12.8,2.5,-2.2,-7.2,-14.5,44,40,34,30.17,30.05,9,2,11,0.00
2013-2-18,41.9,27.7,9.7,30.8,5.6,-11.4,65,39,31,30.11,29.43,9,3,11,0.00
2013-2-19,41.5,29.1,16.9,34.3,14.3,-0.6,77,54,43,29.84,29.28,24,10,27,0.00
2013-2-20,21.4,18.2,14.0,2.3,-1.7,-4.6,46,41,35,30.20,29.84,17,8,21,0.20
2013-2-21,23.5,20.0,16.7,7.4,0.4,-3.4,56,42,33,30.34,30.20,10,3,11,0.00
2013-2-22,28.2,23.9,20.5,19.4,11.8,4.8,69,60,47,30.23,29.78,10,3,17,0.00
2013-2-23,31.5,29.0,26.2,24.2,15.5,10.5,76,57,42,29.84,29.75,13,4,18,0.00
2013-2-24,34.7,29.8,25.7,17.9,12.0,8.0,64,48,33,30.08,29.81,13,4,16,0.00
2013-2-25,34.7,30.0,23.5,14.1,10.7,6.7,55,44,37,30.17,30.05,8,1,10,0.00
2013-2-26,35.6,29.6,23.0,27.2,13.2,4.5,80,51,39,30.08,29.55,24,5,24,0.00
2013-2-27,34.0,33.2,32.7,31.3,29.5,27.2,92,86,80,29.55,29.46,10,1,13,0.00
2013-2-28,34.2,32.5,28.9,30.7,21.2,9.7,92,64,44,29.96,29.55,0,0,0,0.00
2013-3-1,28.9,25.3,21.2,10.4,6.7,2.2,48,45,40,30.11,29.96,0,0,0,0.00
2013-3-2,25.0,20.7,16.3,5.1,2.4,-1.3,49,44,41,30.08,30.02,6,1,8,0.00
2013-3-3,27.1,18.0,8.6,5.0,-1.3,-7.9,54,42,34,30.02,29.93,13,2,14,0.00
2013-3-4,32.0,19.9,7.5,5.2,-0.7,-9.4,56,40,31,30.11,30.02,8,1,9,0.35
2013-3-5,31.1,22.7,10.9,13.7,4.9,-5.8,57,46,39,30.08,29.87,15,3,17,0.00
2013-3-6,37.6,34.2,29.1,17.6,16.1,13.2,55,47,41,30.17,29.99,8,1,11,0.00
2013-3-7,33.1,30.2,23.9,19.2,9.9,4.1,58,43,32,30.34,30.14,8,2,13,0.00
2013-3-8,36.9,28.2,15.4,12.0,7.4,-1.2,54,41,33,30.46,30.34,8,1,10,0.00
2013-3-9,39.9,31.8,20.8,19.4,11.2,4.8,56,42,34,30.34,29.93,8,2,11,0.00
2013-3-10,45.1,39.4,33.6,33.5,25.7,18.6,70,58,50,29.93,29.69,5,0,6,0.00
2013-3-11,47.7,42.8,35.4,43.7,36.7,25.9,87,79,62,29.72,29.37,15,2,24,0.00
2013-3-12,35.8,31.7,28.6,27.1,17.7,10.9,72,56,43,29.84,29.52,17,7,19,0.00
2013-3-13,31.8,26.6,21.9,14.5,5.1,0.1,55,40,28,30.17,29.81,17,8,22,0.00
2013-3-14,36.9,28.3,20.3,8.3,4.4,-0.1,45,36,29,30.23,30.02,13,6,14,0.00
2013-3-15,37.4,34.0,30.6,18.6,12.9,5.5,51,42,31,30.02,29.84,13,5,20,0.00
2013-3-16,31.6,27.9,23.4,14.2,9.4,2.4,54,46,35,30.02,29.78,9,2,13,0.00
2013-3-17,27.0,22.9,18.5,4.8,-0.5,-4.1,45,36,26,30.29,30.02,8,3,13,0.00
2013-3-18,31.6,25.0,16.7,20.1,8.4,-2.0,62,49,38,30.17,29.52,15,3,16,0.00
2013-3-19,32.5,26.1,21.0,21.5,10.4,3.6,64,51,43,29.64,29.52,21,9,24,0.00
2013-3-21,28.0,26.9,25.7,3.9,3.2,2.7,37,36,34,29.90,29.87,17,6,17,0.00
2013-3-22,34.5,28.2,23.4,10.3,6.4,2.8,42,39,34,29.99,29.90,15,6,23,0.00
2013-3-23,34.7,30.6,27.9,12.8,10.0,7.9,44,42,39,30.11,29.99,8,1,10,0.00
2013-3-24,35.4,30.1,24.8,14.4,9.4,6.6,54,42,33,30.02,29.72,12,3,17,0.00
2013-3-25,38.5,33.6,29.1,14.4,12.2,8.9,45,41,34,29.93,29.67,9,3,12,0.00
2013-3-26,41.2,35.6,31.6,17.9,14.2,8.7,53,42,31,30.11,29.93,12,4,15,0.00
2013-3-27,45.9,36.5,30.0,14.7,11.1,7.5,45,35,25,30.17,30.08,20,7,24,0.00
2013-3-28,49.3,38.5,29.7,14.2,10.0,5.1,42,31,21,30.23,30.17,13,6,17,0.00
2013-3-29,50.0,37.4,26.1,13.1,7.5,4.1,42,29,19,30.26,30.14,12,2,14,0.00
2013-3-30,51.8,38.4,24.6,14.9,8.7,4.3,44,30,18,30.20,29.84,8,1,12,0.00
2013-3-31,51.1,43.6,33.6,29.3,21.3,13.6,57,41,28,29.84,29.61,20,6,21,0.00
2013-4-1,33.3,28.8,24.6,14.2,2.3,-1.6,45,32,25,30.05,29.69,21,8,27,0.00
2013-4-2,37.2,28.8,21.0,4.6,1.4,-4.4,43,32,22,30.20,30.05,20,6,23,0.00
2013-4-3,41.7,29.7,19.0,4.6,1.2,-2.3,43,30,21,30.40,30.20,13,2,20,0.00
2013-4-4,54.3,37.9,23.7,14.1,7.4,1.0,39,29,18,30.29,29.87,15,4,20,0.00
2013-4-5,45.5,36.7,29.7,13.9,7.2,-1.1,41,30,20,30.20,29.93,12,2,17,0.00
2013-4-6,51.1,38.4,28.8,15.8,8.8,-0.6,40,30,19,30.20,29.67,10,4,15,0.00
2013-4-7,53.4,44.4,37.2,32.9,21.3,15.1,50,40,26,30.02,29.49,24,7,30,0.00
2013-4-8,43.0,36.7,28.4,37.5,24.7,9.7,86,63,40,30.02,29.67,8,2,11,0.00
2013-4-9,41.0,36.7,0.0,39.1,33.8,0.0,94,84,83,30.05,29.87,8,2,9,0.00
2013-4-10,39.0,32.3,0.0,37.4,28.8,0.0,95,75,55,30.11,29.90,10,4,26,0.00
2013-4-11,35.8,33.1,0.0,27.8,21.0,0.0,82,57,49,30.02,29.69,29,6,34,0.00
2013-4-13,34.0,33.4,32.9,20.5,18.4,16.3,60,54,48,29.93,29.87,13,6,15,0.00
2013-4-14,41.7,35.8,31.1,26.9,21.4,17.1,76,57,40,30.08,29.87,10,3,13,0.00
2013-4-15,63.1,49.0,33.6,45.4,33.0,22.2,72,55,37,29.87,29.78,11,3,11,0.00
2013-4-16,54.0,47.1,40.3,41.5,26.8,15.8,82,49,26,30.26,29.87,18,6,21,0.00
2013-4-17,46.9,40.9,35.6,33.2,21.9,16.3,79,48,31,30.34,30.05,11,3,15,0.00
2013-4-18,60.3,49.9,39.2,58.5,46.9,33.2,95,89,77,30.05,29.43,11,3,13,0.00
2013-4-19,59.7,41.0,33.1,55.3,26.9,12.8,88,58,40,29.67,29.34,25,10,30,0.00
2013-4-20,36.9,31.5,26.6,13.5,6.9,3.1,44,35,29,30.40,29.67,22,9,24,0.00
2013-4-21,48.9,36.3,21.9,15.5,10.4,5.3,53,35,24,30.58,30.37,9,2,10,0.00
2013-4-22,61.3,47.0,30.4,21.2,15.5,9.1,45,29,17,30.40,30.14,6,2,9,0.00
2013-4-23,59.2,47.6,36.0,39.9,26.3,15.0,65,44,28,30.14,29.78,8,1,17,0.00
2013-4-24,47.3,37.8,33.1,27.2,19.8,8.0,78,51,22,30.05,29.84,20,4,23,0.00
2013-4-25,49.5,40.7,34.7,28.8,16.1,10.0,59,38,21,30.29,29.99,21,5,23,0.00
2013-4-26,60.8,45.4,29.3,22.9,17.8,12.7,57,35,21,30.37,30.23,10,2,13,0.00
2013-4-27,68.7,56.9,41.2,31.6,23.7,18.7,48,29,17,30.26,30.05,8,2,15,0.00
2013-4-28,64.4,53.9,43.0,36.4,28.0,19.7,49,37,26,30.05,29.81,8,1,11,0.00
2013-4-29,70.3,60.8,50.7,40.3,35.3,29.8,61,41,23,29.90,29.81,8,1,10,0.00
2013-4-30,72.5,63.1,55.9,55.6,40.5,33.6,88,46,31,29.96,29.84,11,3,13,0.00
2013-5-1,82.0,70.5,58.8,41.0,36.8,31.2,47,31,17,30.17,29.96,8,2,13,0.00
2013-5-2,80.1,70.0,55.8,39.3,33.6,27.7,49,28,15,30.20,30.05,8,2,11,0.00
2013-5-3,79.0,67.7,57.4,34.8,29.5,15.7,35,25,14,30.11,29.99,9,2,15,0.00
2013-5-4,73.0,63.7,50.4,31.2,23.2,16.8,39,22,14,30.08,30.02,13,2,15,0.00
2013-5-5,73.9,59.3,44.8,30.7,23.7,18.2,47,28,13,30.11,29.99,10,2,15,0.00
2013-5-6,75.6,60.3,43.0,30.6,22.8,14.4,49,26,13,30.05,29.96,10,2,14,0.00
2013-5-7,76.5,61.5,43.0,29.6,23.3,18.4,45,25,15,30.05,29.96,11,2,11,0.00
2013-5-8,76.3,64.3,47.7,32.0,25.9,17.9,42,25,15,30.02,29.90,8,1,9,0.00
2013-5-9,79.3,65.1,48.9,32.3,27.3,22.9,44,26,15,29.93,29.84,9,1,14,0.00
2013-5-10,61.2,46.4,41.0,36.1,31.9,23.8,76,59,24,29.90,29.81,11,3,13,0.00
2013-5-11,56.1,44.4,38.3,38.5,30.1,19.6,77,58,39,29.90,29.67,29,4,35,0.00
2013-5-12,42.3,38.2,32.4,20.8,14.9,8.5,49,39,29,30.08,29.81,25,10,27,0.00
2013-5-13,54.9,41.5,29.1,18.8,12.6,8.7,46,32,18,30.14,30.02,15,4,17,0.00
2013-5-14,69.1,54.3,43.0,31.9,22.6,15.9,41,30,22,30.02,29.67,9,2,11,0.00
2013-5-15,76.5,64.8,54.0,43.1,30.2,19.5,56,30,13,29.78,29.49,15,5,21,0.00
2013-5-16,76.5,61.7,48.4,30.9,24.8,18.9,43,27,13,30.05,29.78,15,2,16,0.00
2013-5-17,60.6,52.1,42.1,30.1,25.5,19.5,50,36,28,30.17,30.05,8,2,8,0.00
2013-5-18,74.3,58.4,50.7,35.2,30.3,27.2,51,37,18,30.17,30.02,11,3,13,0.00
2013-5-19,83.3,78.3,66.2,40.5,37.7,35.9,38,24,19,29.93,29.81,6,1,8,0.00
2013-5-20,84.9,69.9,62.6,60.5,49.3,38.8,81,51,23,29.87,29.69,25,1,29,0.00
2013-5-21,74.8,67.8,60.3,63.1,54.0,47.5,87,64,39,29.78,29.67,11,2,12,0.00
2013-5-22,66.9,63.9,60.3,64.0,56.7,47.4,91,78,57,29.69,29.58,10,2,15,0.00
2013-5-23,60.8,51.0,41.4,54.9,43.4,25.0,88,76,48,30.17,29.64,8,2,15,0.00
2013-5-24,59.0,45.3,35.1,28.7,24.7,20.6,73,46,26,30.34,30.17,10,2,13,0.00
2013-5-25,62.8,49.3,36.1,31.6,24.7,21.5,65,40,24,30.40,30.26,8,1,9,0.00
2013-5-26,65.8,52.6,36.9,31.8,23.9,19.9,61,35,20,30.34,30.20,8,1,9,0.00
2013-5-27,68.0,53.1,38.8,31.3,24.7,19.9,57,35,17,30.23,29.99,10,2,13,0.00
2013-5-28,70.2,59.2,52.5,67.0,49.8,31.1,92,72,39,29.99,29.72,8,2,10,0.00
2013-5-29,74.3,68.2,63.3,64.4,56.7,49.7,89,69,43,29.93,29.72,12,4,15,0.00
2013-5-30,82.0,76.2,63.9,60.0,50.9,43.4,80,43,31,29.96,29.87,10,2,11,0.00
2013-5-31,77.9,73.9,70.2,53.4,47.2,43.3,54,40,30,29.90,29.78,15,2,15,0.00
2013-6-1,78.1,71.6,67.6,53.3,47.1,41.1,57,43,27,29.78,29.64,13,3,21,0.00
2013-6-2,68.7,57.8,45.7,50.0,37.5,23.5,65,47,35,30.02,29.58,17,5,23,0.00
2013-6-3,66.7,52.3,37.2,28.8,24.2,20.3,59,36,17,30.08,29.96,16,3,17,0.00
2013-6-4,68.5,55.9,41.4,29.7,26.0,21.6,53,33,22,30.20,30.08,8,1,11,0.00
2013-6-5,66.2,58.7,53.6,29.3,26.0,22.7,36,29,20,30.20,30.02,9,2,13,0.00
2013-6-6,66.6,58.9,54.1,33.5,29.9,25.7,42,34,25,30.05,29.90,9,2,13,0.00
2013-6-7,68.9,57.7,48.0,34.5,29.9,26.9,52,36,23,29.93,29.84,12,2,12,0.00
2013-6-8,69.6,59.3,46.9,40.3,33.2,27.2,58,38,25,30.05,29.90,6,1,8,0.00
2013-6-9,74.8,63.2,48.7,44.8,35.6,29.7,63,38,23,30.11,29.93,11,2,16,0.00
2013-6-10,67.5,64.3,61.2,55.4,46.3,33.1,70,54,29,29.93,29.75,5,1,10,0.00
2013-6-11,78.4,69.6,62.8,55.0,47.4,39.9,73,48,28,29.87,29.78,12,3,15,0.00
2013-6-12,77.0,66.9,56.8,54.5,45.8,38.7,67,48,32,29.90,29.67,8,1,11,0.00
2013-6-13,65.8,62.2,59.0,55.2,51.0,47.8,75,67,62,29.72,29.67,6,1,8,0.00
2013-6-16,79.7,75.7,69.1,51.2,38.2,30.2,53,27,17,29.84,29.78,17,8,20,0.00
2013-6-17,75.2,65.7,55.9,49.7,41.6,36.2,65,43,27,29.96,29.84,11,2,16,0.00
2013-6-18,67.1,59.8,52.3,43.8,34.0,24.2,68,41,23,30.08,29.93,10,3,12,0.00
2013-6-19,71.8,58.7,43.7,36.0,28.6,25.6,57,34,19,30.17,30.08,8,1,9,0.00
2013-6-20,78.4,63.4,47.7,43.8,33.4,28.8,60,35,18,30.17,30.11,6,0,10,0.00
2013-6-21,82.6,69.1,0.0,48.8,40.2,0.0,63,37,20,30.17,29.96,6,1,10,0.00
2013-6-22,85.6,76.4,69.1,51.3,46.7,41.9,50,36,24,30.05,29.93,14,2,14,0.00
2013-6-23,88.3,75.8,0.0,60.9,46.7,0.0,74,38,19,30.02,29.87,14,3,17,0.00
2013-6-24,85.1,76.1,0.0,52.1,46.3,0.0,50,36,21,29.99,29.87,15,4,16,0.00
2013-6-25,78.8,72.2,0.0,54.5,46.7,0.0,56,40,30,29.90,29.78,14,3,17,0.00
2013-6-26,84.0,72.9,61.7,57.2,49.1,44.5,68,45,26,29.84,29.72,6,1,8,0.00
2013-6-27,84.0,73.0,65.7,62.3,52.8,44.2,81,51,25,29.72,29.64,11,2,15,0.00
2013-6-28,72.7,66.3,63.0,61.2,56.6,48.5,85,72,43,29.64,29.52,11,2,13,0.00
2013-6-29,66.7,63.5,60.6,60.5,57.6,52.9,91,82,63,29.75,29.58,8,0,8,0.00
2013-6-30,74.7,65.0,57.4,56.1,47.4,32.5,85,57,25,29.99,29.75,8,2,12,0.00
2013-7-1,73.2,62.1,50.9,44.1,34.2,23.7,63,38,22,30.11,29.99,11,2,17,0.00
2013-7-2,71.1,62.0,55.8,44.2,34.4,24.1,55,37,25,30.11,30.05,8,2,11,0.00
2013-7-3,77.2,65.3,54.0,51.3,43.3,32.1,61,46,33,30.11,29.99,6,1,8,0.00
2013-7-4,76.8,68.7,61.0,58.2,46.9,39.9,76,48,27,30.11,30.02,10,1,12,0.00
2013-7-5,81.3,71.5,61.2,57.0,45.5,42.0,70,42,26,30.08,29.99,8,1,11,0.00
2013-7-6,83.8,73.2,62.6,56.8,47.3,41.5,65,42,23,30.08,29.93,6,1,9,0.00
2013-7-7,80.6,73.6,0.0,55.7,51.4,0.0,57,46,33,29.99,29.90,8,1,11,0.00
2013-7-8,76.8,71.0,0.0,63.6,56.1,0.0,73,58,44,29.99,29.93,9,1,13,0.00
2013-7-9,80.8,72.3,67.6,65.4,59.4,53.4,78,65,40,29.96,29.81,6,1,9,0.00
2013-7-10,78.3,73.7,62.2,67.5,51.3,33.1,80,50,22,29.96,29.72,17,5,21,0.00
2013-7-11,75.4,65.6,55.8,50.2,39.6,33.8,69,40,22,30.08,29.96,8,2,10,0.00
2013-7-12,77.2,64.6,50.7,46.9,39.0,33.4,66,41,22,30.17,30.08,6,1,8,0.00
2013-7-13,81.5,67.3,55.6,53.5,41.1,35.7,70,42,20,30.20,30.14,4,0,6,0.00
2013-7-14,86.4,73.8,59.7,54.2,46.4,41.7,65,40,22,30.26,30.20,6,1,8,0.00
2013-7-15,89.2,78.3,67.6,59.7,51.7,46.2,63,41,23,30.29,30.20,5,0,6,0.00
2013-7-16,91.2,81.5,71.4,63.4,53.5,47.6,67,41,23,30.29,30.20,11,2,15,0.00
2013-7-17,92.1,82.6,72.3,59.9,51.0,44.4,57,36,20,30.23,30.11,12,4,17,0.00
2013-7-18,93.2,83.4,73.0,59.0,48.7,41.6,57,32,18,30.14,29.87,15,3,21,0.00
2013-7-19,90.3,83.5,70.7,57.5,49.6,43.7,47,32,21,29.87,29.67,20,7,33,0.00
2013-7-20,80.6,71.1,61.0,52.8,44.9,35.4,59,41,21,29.96,29.69,13,1,15,0.00
2013-7-21,75.9,64.6,53.1,40.8,35.9,31.1,51,36,21,30.02,29.90,5,1,7,0.00
2013-7-22,81.3,71.2,62.2,56.5,47.0,37.6,66,44,27,29.96,29.69,6,1,9,0.00
2013-7-23,72.9,69.0,58.5,58.3,44.0,29.0,63,42,24,29.90,29.64,15,3,17,0.00
2013-7-24,69.3,59.5,47.3,36.2,30.9,26.9,54,35,23,30.05,29.90,7,1,8,0.00
2013-7-25,76.8,62.3,46.8,43.7,32.8,27.6,64,36,18,30.08,30.02,6,1,8,0.00
2013-7-26,73.6,64.5,57.4,54.6,42.4,35.5,71,45,32,30.05,29.87,8,1,12,0.00
2013-7-27,68.9,63.4,55.4,57.3,47.3,34.8,77,58,35,29.87,29.72,19,4,20,0.00
2013-7-28,64.8,57.4,50.5,46.4,37.1,33.2,69,48,32,29.93,29.78,13,3,17,0.00
2013-7-29,70.0,61.2,55.8,48.6,42.4,36.1,74,53,30,30.17,29.90,11,4,13,0.00
2013-7-30,73.8,62.2,47.8,45.5,36.9,30.9,73,41,24,30.23,30.08,8,1,8,0.00
2013-7-31,67.3,63.6,59.7,60.5,53.0,40.0,83,69,46,30.11,29.87,5,0,8,0.00
2013-8-1,70.7,63.6,61.2,57.2,54.5,40.9,83,74,34,29.90,29.87,13,3,13,0.00
2013-8-4,66.9,63.4,61.3,40.0,39.1,37.6,44,41,34,30.08,30.08,0,0,0,0.00
2013-8-5,68.7,60.2,50.7,43.7,38.2,32.2,61,45,26,30.08,29.93,6,1,9,0.00
2013-8-6,75.9,68.0,61.5,50.2,47.1,41.6,59,48,36,29.93,29.84,6,1,11,0.00
2013-8-7,79.3,69.8,62.2,62.2,52.1,42.8,88,57,29,29.93,29.72,14,4,17,0.00
2013-8-8,72.9,64.4,55.0,49.0,40.1,31.7,72,44,23,30.02,29.93,6,1,8,0.00
2013-8-9,77.0,65.3,52.0,51.3,38.8,33.4,73,40,23,29.99,29.90,13,3,17,0.00
2013-8-10,71.4,63.1,51.1,41.4,36.4,32.9,60,38,26,30.14,29.99,9,1,11,0.00
2013-8-11,72.1,63.8,55.8,44.9,38.8,35.0,60,41,26,30.11,30.02,8,2,10,0.00
2013-8-12,76.5,68.9,63.1,48.3,43.2,36.9,56,40,31,30.05,29.81,8,1,9,0.00
2013-8-13,65.7,59.5,50.4,40.1,30.0,24.4,51,34,23,30.08,29.87,13,3,20,0.00
2013-8-14,70.0,58.2,46.4,40.3,30.1,26.5,62,36,23,30.17,30.08,10,3,11,0.00
2013-8-15,74.8,58.3,0.0,40.5,30.4,0.0,58,36,18,30.14,30.05,11,2,15,0.00
2013-8-16,77.2,62.2,47.5,40.9,33.2,26.8,58,36,20,30.17,30.08,6,1,8,0.00
2013-8-17,79.7,64.1,49.1,42.0,34.5,0.0,57,36,20,30.26,30.17,6,1,8,0.00
2013-8-18,80.1,64.6,49.3,45.3,34.7,29.6,62,35,17,30.23,30.08,6,1,6,0.00
2013-8-19,82.0,67.4,51.3,46.1,35.8,31.1,60,34,20,30.11,29.99,12,3,15,0.00
2013-8-20,84.9,70.8,56.7,48.8,39.1,35.3,53,34,19,30.08,30.02,13,3,15,0.00
2013-8-21,86.5,72.2,0.0,53.5,41.1,0.0,64,34,19,30.08,29.93,12,2,14,0.00
2013-8-22,78.4,72.5,0.0,52.1,44.2,0.0,59,37,28,30.08,29.90,10,2,15,0.00
2013-8-23,77.9,64.6,50.2,41.0,34.4,29.1,53,34,20,30.17,30.08,6,1,11,0.00
2013-8-24,82.4,65.2,49.1,45.9,34.5,28.7,60,35,16,30.29,30.17,6,1,8,0.00
2013-8-25,88.5,72.3,57.6,43.4,40.0,33.4,51,33,19,30.26,30.05,15,3,22,0.00
2013-8-26,86.0,77.5,73.2,54.1,46.6,42.2,47,34,23,30.08,29.93,12,5,17,0.00
2013-8-27,75.4,72.4,70.3,71.2,63.4,47.9,92,76,42,29.96,29.81,16,1,28,0.00
2013-8-28,78.4,72.7,68.4,70.6,64.5,55.1,92,78,46,30.02,29.78,6,1,10,0.00
2013-8-29,81.3,71.0,61.0,70.7,55.6,47.5,92,62,32,30.08,29.96,6,1,8,0.00
2013-8-30,84.4,73.6,66.2,63.3,56.1,48.8,81,57,30,29.96,29.69,15,3,20,0.00
2013-8-31,74.3,69.4,62.6,58.0,51.0,44.3,71,54,35,29.87,29.78,6,1,7,0.00
2013-9-1,76.3,66.5,58.3,60.9,52.1,45.2,85,62,40,29.87,29.69,5,1,8,0.00
2013-9-2,69.8,63.4,58.5,57.1,41.9,33.5,69,47,33,29.93,29.72,15,4,18,0.00
2013-9-3,73.9,64.0,53.1,41.5,34.6,30.9,60,35,21,30.02,29.90,14,5,15,0.00
2013-9-4,77.7,62.4,54.5,44.6,39.3,33.2,57,44,30,30.11,29.99,12,1,15,0.00
2013-9-5,67.1,56.8,46.2,36.0,30.8,26.7,57,39,23,30.29,30.11,8,1,10,0.00
2013-9-6,74.8,59.0,42.1,44.1,32.3,24.4,68,39,22,30.26,30.02,10,1,11,0.00
2013-9-7,75.6,69.0,63.3,63.1,48.5,36.7,69,49,36,30.02,29.84,8,2,11,0.00
2013-9-8,69.6,65.1,55.0,58.1,41.2,30.8,68,44,25,30.11,29.93,13,3,15,0.00
2013-9-9,77.5,63.7,53.1,59.4,45.8,33.4,64,53,41,30.05,29.81,5,1,6,0.00
2013-9-10,89.4,80.1,73.0,62.6,50.0,39.4,67,39,19,29.93,29.78,15,4,15,0.00
2013-9-11,82.2,74.5,67.5,53.7,45.1,40.4,55,36,23,29.99,29.90,13,3,17,0.00
2013-9-12,72.5,65.6,56.7,52.6,38.6,23.9,65,39,24,29.99,29.87,13,4,15,0.00
2013-9-13,60.8,52.1,43.0,32.5,25.7,20.3,55,37,21,30.14,29.99,8,2,10,0.00
2013-9-14,67.3,51.8,35.6,31.8,23.4,16.5,55,35,17,30.17,30.02,13,2,13,0.00
2013-9-15,60.8,55.8,50.4,44.6,35.4,29.5,67,46,39,30.11,30.02,6,0,6,0.00
2013-9-16,58.1,52.4,43.5,45.2,31.9,22.5,74,47,27,30.37,30.11,6,2,9,0.00
2013-9-17,66.0,49.0,33.1,35.4,24.7,16.1,66,40,23,30.40,30.20,7,1,8,0.00
2013-9-18,75.9,56.2,39.0,41.9,31.0,21.9,69,41,21,30.20,29.96,8,1,11,0.00
2013-9-19,75.4,66.6,59.7,61.3,48.7,37.2,79,54,40,29.99,29.81,10,1,10,0.00
2013-9-20,71.6,69.1,64.8,64.9,55.4,48.8,83,63,46,29.84,29.69,13,3,16,0.00
2013-9-21,64.8,58.8,51.6,51.4,37.2,26.9,68,46,27,29.90,29.67,12,4,16,0.00
2013-9-22,55.4,50.6,45.3,32.0,27.6,24.1,56,41,30,30.08,29.90,8,1,11,0.00
2013-9-23,60.4,51.1,44.1,31.0,28.4,24.0,53,42,28,30.20,30.08,6,1,9,0.00
2013-9-24,65.1,49.4,35.8,43.4,27.3,19.4,76,44,27,30.17,29.99,6,1,9,0.00
2013-9-25,66.9,51.5,38.7,48.3,29.2,22.1,77,44,25,30.02,29.96,6,1,8,0.00
2013-9-26,71.1,55.4,43.3,49.7,32.1,24.7,75,44,22,30.14,30.02,5,0,7,0.00
2013-9-27,75.2,56.9,41.7,47.9,32.3,24.4,77,42,21,30.23,30.14,5,1,6,0.00
2013-9-28,77.2,61.0,44.4,53.7,35.1,25.6,83,42,20,30.17,29.93,6,2,8,0.00
2013-9-29,66.4,61.6,50.0,47.5,36.2,28.4,65,40,24,29.99,29.87,11,2,11,0.00
2013-9-30,66.2,57.6,49.3,48.3,37.6,31.4,73,49,28,30.02,29.90,8,1,10,0.00
2013-10-1,71.1,60.2,46.2,55.4,42.0,29.4,81,52,36,29.93,29.84,15,2,17,0.00
2013-10-2,71.6,61.6,49.5,49.7,35.2,22.6,65,40,16,30.08,29.87,9,2,11,0.00
2013-10-3,77.7,58.9,43.2,59.2,41.1,25.9,76,53,31,30.05,29.87,13,1,16,0.00
2013-10-4,70.3,65.9,60.4,66.4,61.3,54.7,91,85,73,30.05,29.87,7,1,16,0.00
2013-10-5,66.9,62.2,59.2,64.5,59.5,54.5,93,91,84,30.02,29.81,8,2,13,0.00
2013-10-6,67.8,62.7,52.7,65.0,58.6,48.0,92,87,72,29.81,29.64,11,2,15,0.00
2013-10-7,57.9,51.7,45.9,48.1,39.2,27.2,85,66,31,30.05,29.64,19,4,23,0.00
2013-10-8,66.9,51.9,37.6,47.2,31.2,26.6,82,49,24,30.26,30.05,7,1,8,0.00
2013-10-9,68.9,52.9,39.2,48.5,29.9,24.5,79,44,22,30.31,30.20,5,1,8,0.00
2013-10-10,67.8,50.8,36.7,48.5,29.8,22.0,81,47,23,30.23,30.11,5,1,8,0.00
2013-10-11,68.5,52.2,37.4,45.5,29.3,22.7,79,44,23,30.17,30.05,8,1,8,0.00
2013-10-12,76.8,57.5,40.6,49.5,33.2,25.2,78,43,21,30.08,29.96,13,1,15,0.00
2013-10-13,63.9,54.8,43.7,47.0,30.9,24.2,55,41,27,30.37,30.05,14,3,15,0.00
2013-10-14,57.9,47.9,36.1,32.5,24.4,19.7,63,41,26,30.43,30.26,9,1,10,0.00
2013-10-15,64.6,48.9,34.5,54.0,32.5,18.3,82,54,35,30.29,29.75,6,2,11,0.00
2013-10-16,59.2,52.6,46.6,53.7,42.2,33.2,82,68,54,29.87,29.75,11,3,13,0.00
2013-10-17,50.5,48.3,42.1,42.3,39.0,35.3,82,70,57,29.87,29.72,6,1,7,0.00
2013-10-18,57.0,46.6,38.7,47.2,32.9,27.4,87,62,33,29.87,29.78,14,3,23,0.00
2013-10-19,50.9,45.7,39.4,30.9,25.5,17.4,56,46,27,29.84,29.69,17,4,23,0.00
2013-10-20,52.3,45.2,37.9,34.7,27.3,21.3,71,51,31,29.87,29.72,11,2,13,0.00
2013-10-21,51.4,47.8,38.5,39.2,27.2,11.1,63,46,32,29.81,29.72,21,7,21,0.00
2013-10-22,47.7,40.2,34.0,19.1,14.9,9.6,43,36,28,29.87,29.81,17,6,19,0.00
2013-10-23,44.2,36.8,31.6,23.9,17.1,12.5,62,45,28,29.90,29.84,16,3,19,0.00
2013-10-24,45.1,37.0,31.3,21.9,17.2,13.3,62,45,29,30.14,29.90,15,6,19,0.00
2013-10-25,45.5,38.4,31.1,22.9,16.0,11.3,61,42,28,30.29,29.93,15,5,17,0.00
2013-10-26,47.5,43.4,36.9,29.6,21.9,13.8,53,43,31,29.96,29.69,18,6,27,0.00
2013-10-27,50.0,41.7,34.9,20.7,18.1,15.2,47,39,28,30.02,29.90,15,4,16,0.00
2013-10-28,43.2,39.8,34.9,23.3,17.0,12.9,53,40,31,30.43,29.99,11,2,13,0.00
2013-10-29,40.8,34.9,29.8,22.3,14.5,9.5,53,43,36,30.46,30.23,5,1,8,0.00
2013-10-30,58.1,41.9,28.2,33.8,24.1,13.3,73,50,36,30.23,29.90,5,1,6,0.00
2013-10-31,60.6,57.9,54.1,57.5,51.2,31.0,93,79,39,29.90,29.05,6,1,8,0.00
2013-11-1,59.7,48.7,45.9,57.4,39.6,32.3,92,71,54,29.64,29.05,24,8,28,0.00
2013-11-2,46.0,41.9,0.0,39.7,31.2,0.0,81,66,42,30.11,29.64,7,1,8,0.00
2013-11-3,42.6,36.9,29.7,24.7,18.7,15.4,67,48,37,30.40,30.11,6,2,8,0.00
2013-11-4,49.5,40.7,32.7,21.5,15.5,10.0,56,37,21,30.43,30.23,11,4,11,0.00
2013-11-5,58.5,51.1,43.7,33.1,28.5,17.8,48,42,35,30.29,30.05,8,2,9,0.00
2013-11-6,56.3,50.6,39.7,51.2,37.5,22.9,84,62,39,30.05,29.67,23,5,23,0.00
2013-11-7,41.4,37.4,35.1,23.7,14.9,9.4,55,40,29,30.11,29.96,17,8,23,0.00
2013-11-8,42.3,36.0,30.6,16.7,12.9,9.3,50,39,29,30.23,30.08,13,4,15,0.00
2013-11-9,50.0,44.4,35.4,25.2,19.6,13.8,43,37,29,30.08,29.72,25,8,32,0.00
2013-11-10,45.9,40.9,33.1,18.9,14.7,9.1,42,34,28,30.23,29.84,25,8,32,0.00
2013-11-11,39.6,34.0,25.3,26.1,15.0,4.9,63,46,38,30.34,29.99,13,2,17,0.00
2013-11-12,25.3,23.2,21.7,7.1,5.4,3.8,50,46,41,30.46,30.34,0,0,0,0.00
2013-11-19,36.5,30.2,27.5,9.5,8.1,6.5,43,39,32,30.37,30.31,5,0,6,0.00
2013-11-20,44.1,33.9,24.3,17.3,11.9,7.7,56,41,29,30.37,30.20,8,2,10,0.00
2013-11-21,46.2,40.4,35.6,28.7,23.6,13.7,61,51,39,30.23,30.14,3,0,5,0.00
2013-11-22,42.3,35.9,25.3,34.4,19.0,7.1,76,51,36,30.34,30.11,8,3,16,0.00
2013-11-23,27.3,22.0,13.5,9.5,2.1,-3.9,53,42,33,30.49,30.23,21,5,24,0.00
2013-11-24,21.7,17.2,11.8,0.4,-3.0,-5.4,51,40,34,30.55,30.29,15,5,17,0.00
2013-11-25,30.6,26.0,20.3,17.5,5.8,-3.0,58,42,33,30.29,29.96,15,4,21,0.00
2013-11-26,32.9,30.5,25.2,20.4,16.8,4.8,64,57,41,29.99,29.90,16,3,16,0.00
2013-11-27,25.0,20.4,16.9,5.1,-0.2,-4.1,47,40,32,30.14,29.96,9,4,15,0.00
2013-11-28,24.3,19.6,12.9,10.8,4.4,-4.4,56,51,44,30.37,30.14,5,1,6,0.00
2013-11-29,24.4,20.4,14.5,11.4,6.5,-1.1,59,54,49,30.61,30.37,5,0,6,0.00
2013-11-30,41.0,31.5,20.1,17.4,12.6,6.9,58,46,37,30.49,30.02,9,2,9,0.00
2013-12-1,36.9,34.7,32.0,22.3,18.2,15.2,59,51,46,30.05,29.99,5,0,6,0.00
2013-12-2,36.9,32.8,28.6,16.4,13.5,8.5,52,45,36,29.99,29.87,4,0,6,0.00
2013-12-3,32.7,30.0,25.2,27.2,18.4,8.8,80,63,45,29.90,29.81,8,2,12,0.00
2013-12-4,52.9,37.7,32.7,51.2,33.8,27.2,94,86,80,29.84,29.49,6,1,9,0.00
2013-12-5,52.7,36.9,25.3,51.0,19.0,2.1,94,50,32,30.08,29.49,22,10,27,0.00
2013-12-6,25.2,21.0,16.7,2.9,-1.1,-4.7,43,37,34,30.34,30.08,16,8,22,0.00
2013-12-7,20.3,16.9,7.9,-0.1,-5.7,-14.1,42,36,33,30.58,30.34,15,7,18,0.00
2013-12-8,22.3,14.4,6.4,9.4,-5.5,-15.4,57,41,35,30.55,29.96,8,2,11,0.00
2013-12-9,27.3,22.8,12.6,14.6,6.7,-9.9,60,50,34,30.05,29.81,27,6,28,0.00
2013-12-10,18.7,12.7,5.4,0.9,-7.6,-16.3,46,39,35,30.11,29.84,18,6,22,0.00
2013-12-11,15.4,11.9,4.8,-2.5,-8.3,-17.4,46,39,34,30.37,30.11,16,7,22,0.00
2013-12-12,20.1,11.8,4.5,2.7,-8.2,-17.7,48,40,34,30.37,30.08,17,5,21,0.00
2013-12-13,22.3,20.3,12.9,5.6,2.0,-6.0,51,44,40,30.31,30.05,12,4,13,0.00
2013-12-14,19.6,16.0,10.8,6.3,0.5,-7.8,56,50,42,30.31,29.84,11,3,13,0.00
2013-12-15,20.8,16.7,11.3,8.2,-0.3,-9.4,58,47,35,29.93,29.75,23,7,27,0.00
2013-12-16,16.9,9.2,-5.1,-4.7,-11.5,-24.2,41,37,34,30.14,29.93,8,2,11,0.00
2013-12-17,27.5,20.5,13.3,16.6,5.2,-8.1,63,52,37,29.99,29.75,18,2,19,0.00
2013-12-18,26.2,24.2,20.7,11.4,5.6,-2.1,55,45,36,30.05,29.78,13,5,15,0.00
2013-12-19,31.8,22.9,10.4,18.8,4.7,-7.7,64,45,37,29.99,29.75,5,1,8,0.00
2013-12-20,30.4,28.6,27.0,24.0,20.2,13.9,77,71,55,29.90,29.75,8,2,11,0.00
2013-12-21,30.0,28.3,26.6,23.7,21.3,17.3,77,75,67,29.87,29.75,6,1,9,0.00
2013-12-22,28.9,26.8,22.1,22.9,18.1,9.1,78,70,55,29.99,29.64,9,2,11,0.00
2013-12-23,22.5,20.3,15.4,10.0,6.1,-0.7,61,54,45,30.29,29.99,8,1,8,0.00
2013-12-24,15.4,9.5,-0.4,-0.7,-7.2,-15.8,48,46,39,30.46,30.29,12,2,12,0.00
2013-12-25,22.8,16.8,1.6,11.7,2.7,-14.8,62,53,45,30.43,30.02,8,2,9,0.00
2013-12-26,23.4,22.3,20.1,14.3,8.5,2.8,69,56,43,30.20,29.96,14,4,15,0.00
2013-12-27,34.5,26.6,21.9,24.5,14.7,7.8,73,60,54,30.26,29.93,15,2,15,0.00
2013-12-28,39.6,34.3,30.2,24.0,20.9,16.1,66,58,49,30.02,29.78,10,2,13,0.00
2013-12-29,35.6,28.3,15.6,23.0,11.2,-6.3,61,48,36,30.02,29.69,13,3,18,0.00
2013-12-30,15.4,11.8,2.8,-6.2,-9.5,-17.5,38,37,35,30.23,30.02,11,3,17,0.00
2013-12-31,14.4,11.6,8.4,-6.9,-9.2,-12.0,38,38,36,30.29,30.02,19,8,23,0.00
2014-1-1,12.4,7.5,-1.8,-8.4,-12.8,-21.2,38,38,38,30.40,30.29,6,1,11,0.00
2014-1-2,10.2,7.3,-5.1,-10.3,-13.0,-24.2,38,38,38,30.31,30.17,8,2,11,0.00